This is the latest recevied weather packets stored in our database for station/object K7LER. If no packets are shown the sender has not sent any weather packets the latest 10 day(s).
| Time | Temp. | Humidity | Pressure | Rain* | Wind** | Luminosity | Snow |
|---|---|---|---|---|---|---|---|
| 1777854037 | 24.44° C | 41% | 1009.9 hPa | 0 mm | - | 332 W/m² | - |
| 1777853740 | 25° C | 41% | 1010.1 hPa | 0 mm | - | 332 W/m² | - |
| 1777853434 | 25° C | 42% | 1010.1 hPa | 0 mm | - | 346 W/m² | - |
| 1777853139 | 24.44° C | 41% | 1010 hPa | 0 mm | - | 380 W/m² | - |
| 1777852850 | 24.44° C | 42% | 1010.1 hPa | 0 mm | - | 415 W/m² | - |
| 1777852535 | 24.44° C | 43% | 1010.2 hPa | 0 mm | - | 432 W/m² | - |
| 1777852238 | 23.89° C | 43% | 1010.2 hPa | 0 mm | - | 475 W/m² | - |
| 1777851946 | 23.89° C | 43% | 1010.3 hPa | 0 mm | - | 513 W/m² | - |
| 1777851639 | 24.44° C | 43% | 1010.2 hPa | 0 mm | - | 540 W/m² | - |
| 1777851339 | 24.44° C | 43% | 1010.3 hPa | 0 mm | - | 552 W/m² | - |
| 1777851042 | 24.44° C | 43% | 1010.4 hPa | 0 mm | - | 582 W/m² | - |
| 1777850739 | 23.89° C | 43% | 1010.2 hPa | 0 mm | - | 568 W/m² | - |
| 1777850437 | 23.89° C | 43% | 1010.5 hPa | 0 mm | - | 619 W/m² | - |
| 1777850156 | 23.89° C | 44% | 1010.3 hPa | 0 mm | - | 638 W/m² | - |
| 1777849838 | 23.89° C | 43% | 1010.4 hPa | 0 mm | - | 649 W/m² | - |
| 1777849538 | 24.44° C | 43% | 1010.5 hPa | 0 mm | - | 668 W/m² | - |
| 1777849244 | 24.44° C | 43% | 1010.5 hPa | 0 mm | - | 677 W/m² | - |
| 1777848937 | 24.44° C | 42% | 1010.7 hPa | 0 mm | - | 689 W/m² | - |
| 1777848634 | 24.44° C | 40% | 1010.8 hPa | 0 mm | - | 700 W/m² | - |
| 1777848345 | 24.44° C | 41% | 1010.9 hPa | 0 mm | - | 710 W/m² | - |
| 1777848034 | 24.44° C | 40% | 1011 hPa | 0 mm | - | 721 W/m² | - |
| 1777847738 | 23.89° C | 42% | 1011 hPa | 0 mm | - | 731 W/m² | - |
| 1777847457 | 23.89° C | 42% | 1011.2 hPa | 0 mm | - | 740 W/m² | - |
| 1777847137 | 23.89° C | 43% | 1011.3 hPa | 0 mm | - | 747 W/m² | - |
| 1777846839 | 23.89° C | 43% | 1011.3 hPa | 0 mm | - | 758 W/m² | - |
* Rain latest hour (hover to see other rain measurements)
** Current wind speed in m/s (hover to see current wind gust speed)